Time,TemperatureF,DewpointF,PressureIn,WindDirection,WindDirectionDegrees,WindSpeedMPH,WindSpeedGustMPH,Humidity,HourlyPrecipIn,Conditions,Clouds,dailyrainin,SoftwareType,DateUTC
2013-08-01 00:04:00,56.9,53.1,30.02,WSW,248,3.0,-999.0,87,0.00,,,0.00,Wunderground v.1.15,2013-08-01 07:04:00,
2013-08-01 00:09:00,56.9,53.1,30.02,SW,225,4.0,-999.0,87,0.00,,,0.00,Wunderground v.1.15,2013-08-01 07:09:00,
2013-08-01 00:14:00,56.9,53.1,30.02,WSW,248,4.0,-999.0,87,0.00,,,0.00,Wunderground v.1.15,2013-08-01 07:14:00,
2013-08-01 00:19:00,56.9,53.1,30.02,WSW,248,5.0,-999.0,87,0.00,,,0.00,Wunderground v.1.15,2013-08-01 07:19:00,
2013-08-01 00:24:00,56.8,53.0,30.02,SSW,203,4.0,-999.0,87,0.00,,,0.00,Wunderground v.1.15,2013-08-01 07:24:00,
2013-08-01 00:29:00,56.8,53.0,30.02,WSW,248,6.0,-999.0,87,0.00,,,0.00,Wunderground v.1.15,2013-08-01 07:29:00,
2013-08-01 00:34:00,56.8,53.0,30.02,WSW,248,6.0,-999.0,87,0.00,,,0.00,Wunderground v.1.15,2013-08-01 07:34:00,
2013-08-01 00:39:00,56.8,53.0,30.02,SW,225,4.0,-999.0,87,0.00,,,0.00,Wunderground v.1.15,2013-08-01 07:39:00,
2013-08-01 00:44:00,56.7,53.2,30.02,SW,225,6.0,-999.0,88,0.00,,,0.00,Wunderground v.1.15,2013-08-01 07:44:00,
2013-08-01 00:49:00,56.7,53.2,30.02,SSW,203,4.0,-999.0,88,0.00,,,0.00,Wunderground v.1.15,2013-08-01 07:49:00,
2013-08-01 00:54:00,56.7,53.2,30.02,SW,225,4.0,-999.0,88,0.00,,,0.00,Wunderground v.1.15,2013-08-01 07:54:00,
2013-08-01 00:59:00,56.6,53.1,30.02,SW,225,6.0,-999.0,88,0.00,,,0.00,Wunderground v.1.15,2013-08-01 07:59:00,
2013-08-01 01:04:00,56.6,53.1,30.02,WSW,248,5.0,-999.0,88,0.00,,,0.00,Wunderground v.1.15,2013-08-01 08:04:00,
2013-08-01 01:09:00,56.6,53.1,30.02,SW,225,5.0,-999.0,88,0.00,,,0.00,Wunderground v.1.15,2013-08-01 08:09:00,
2013-08-01 01:14:00,56.5,53.0,30.01,SW,225,7.0,-999.0,88,0.00,,,0.00,Wunderground v.1.15,2013-08-01 08:14:00,
2013-08-01 01:19:00,56.4,52.9,30.01,SW,225,7.0,-999.0,88,0.00,,,0.00,Wunderground v.1.15,2013-08-01 08:19:00,
2013-08-01 01:29:00,56.4,52.9,30.01,WSW,248,5.0,-999.0,88,0.00,,,0.00,Wunderground v.1.15,2013-08-01 08:29:00,
2013-08-01 01:34:00,56.3,52.8,30.01,WSW,248,5.0,-999.0,88,0.00,,,0.00,Wunderground v.1.15,2013-08-01 08:34:00,
2013-08-01 01:39:00,56.2,52.7,30.01,SW,225,5.0,-999.0,88,0.00,,,0.00,Wunderground v.1.15,2013-08-01 08:39:00,
2013-08-01 01:44:00,56.2,52.7,30.01,SW,225,4.0,-999.0,88,0.00,,,0.00,Wunderground v.1.15,2013-08-01 08:44:00,
2013-08-01 01:49:00,56.1,52.9,30.01,SW,225,5.0,-999.0,89,0.00,,,0.00,Wunderground v.1.15,2013-08-01 08:49:00,
2013-08-01 01:54:00,56.1,52.9,30.01,SW,225,5.0,-999.0,89,0.00,,,0.00,Wunderground v.1.15,2013-08-01 08:54:00,
2013-08-01 01:59:00,56.0,52.8,30.01,SW,225,5.0,-999.0,89,0.00,,,0.00,Wunderground v.1.15,2013-08-01 08:59:00,
2013-08-01 02:04:00,56.0,52.8,30.01,South,180,3.0,-999.0,89,0.00,,,0.00,Wunderground v.1.15,2013-08-01 09:04:00,
2013-08-01 02:09:00,56.0,52.8,30.01,SSE,158,3.0,-999.0,89,0.00,,,0.00,Wunderground v.1.15,2013-08-01 09:09:00,
2013-08-01 02:14:00,56.0,52.8,30.01,SW,225,3.0,-999.0,89,0.00,,,0.00,Wunderground v.1.15,2013-08-01 09:14:00,
2013-08-01 02:19:00,56.0,52.8,30.01,WSW,248,4.0,-999.0,89,0.00,,,0.00,Wunderground v.1.15,2013-08-01 09:19:00,
2013-08-01 02:24:00,56.0,52.8,30.01,SW,225,2.0,-999.0,89,0.00,,,0.00,Wunderground v.1.15,2013-08-01 09:24:00,
2013-08-01 02:29:00,56.0,52.8,30.01,WSW,248,3.0,-999.0,89,0.00,,,0.00,Wunderground v.1.15,2013-08-01 09:29:00,
2013-08-01 02:34:00,55.9,52.4,30.01,SSE,158,3.0,-999.0,88,0.00,,,0.00,Wunderground v.1.15,2013-08-01 09:34:00,
2013-08-01 02:39:00,55.9,52.7,30.01,SSE,158,2.0,-999.0,89,0.00,,,0.00,Wunderground v.1.15,2013-08-01 09:39:00,
2013-08-01 02:44:00,55.9,52.7,30.01,SW,225,3.0,-999.0,89,0.00,,,0.00,Wunderground v.1.15,2013-08-01 09:44:00,
2013-08-01 02:49:00,55.9,52.7,30.01,SW,225,2.0,-999.0,89,0.00,,,0.00,Wunderground v.1.15,2013-08-01 09:49:00,
2013-08-01 02:54:00,55.8,52.3,30.00,SSE,158,3.0,-999.0,88,0.00,,,0.00,Wunderground v.1.15,2013-08-01 09:54:00,
2013-08-01 02:59:00,55.8,52.3,30.00,SSE,158,2.0,-999.0,88,0.00,,,0.00,Wunderground v.1.15,2013-08-01 09:59:00,
2013-08-01 03:04:00,55.8,52.3,30.00,SSE,158,3.0,-999.0,88,0.00,,,0.00,Wunderground v.1.15,2013-08-01 10:04:00,
2013-08-01 03:09:00,55.8,52.3,30.00,SSE,158,3.0,-999.0,88,0.00,,,0.00,Wunderground v.1.15,2013-08-01 10:09:00,
2013-08-01 03:14:00,55.8,52.3,30.00,SSE,158,4.0,-999.0,88,0.00,,,0.00,Wunderground v.1.15,2013-08-01 10:14:00,
2013-08-01 03:19:00,55.8,52.3,30.00,SW,225,3.0,-999.0,88,0.00,,,0.00,Wunderground v.1.15,2013-08-01 10:19:00,
2013-08-01 03:24:00,55.8,52.3,30.00,SW,225,3.0,-999.0,88,0.00,,,0.00,Wunderground v.1.15,2013-08-01 10:24:00,
2013-08-01 03:29:00,55.8,52.3,30.00,SSE,158,3.0,-999.0,88,0.00,,,0.00,Wunderground v.1.15,2013-08-01 10:29:00,
2013-08-01 03:34:00,55.7,52.2,30.00,SSE,158,4.0,-999.0,88,0.00,,,0.00,Wunderground v.1.15,2013-08-01 10:34:00,
2013-08-01 03:39:00,55.7,52.2,30.00,SSE,158,4.0,-999.0,88,0.00,,,0.00,Wunderground v.1.15,2013-08-01 10:39:00,
2013-08-01 03:44:00,55.7,52.2,30.00,South,180,3.0,-999.0,88,0.00,,,0.00,Wunderground v.1.15,2013-08-01 10:44:00,
2013-08-01 03:49:00,55.7,51.9,30.00,SSW,203,3.0,-999.0,87,0.00,,,0.00,Wunderground v.1.15,2013-08-01 10:49:00,
2013-08-01 03:54:00,55.7,52.2,30.00,WSW,248,3.0,-999.0,88,0.00,,,0.00,Wunderground v.1.15,2013-08-01 10:54:00,
2013-08-01 03:59:00,55.7,52.2,30.00,SSE,158,3.0,-999.0,88,0.00,,,0.00,Wunderground v.1.15,2013-08-01 10:59:00,
2013-08-01 04:04:00,55.7,52.2,30.01,SW,225,3.0,-999.0,88,0.00,,,0.00,Wunderground v.1.15,2013-08-01 11:04:00,
2013-08-01 04:09:00,55.7,52.2,30.01,SW,225,3.0,-999.0,88,0.00,,,0.00,Wunderground v.1.15,2013-08-01 11:09:00,
2013-08-01 04:14:00,55.8,52.3,30.01,SSE,158,3.0,-999.0,88,0.00,,,0.00,Wunderground v.1.15,2013-08-01 11:14:00,
2013-08-01 04:19:00,55.8,52.3,30.01,WSW,248,3.0,-999.0,88,0.00,,,0.00,Wunderground v.1.15,2013-08-01 11:19:00,
2013-08-01 04:24:00,55.8,52.3,30.01,SW,225,2.0,-999.0,88,0.00,,,0.00,Wunderground v.1.15,2013-08-01 11:24:00,
2013-08-01 04:29:00,55.8,52.3,30.01,SW,225,3.0,-999.0,88,0.00,,,0.00,Wunderground v.1.15,2013-08-01 11:29:00,
2013-08-01 04:34:00,55.8,52.3,30.01,SW,225,4.0,-999.0,88,0.00,,,0.00,Wunderground v.1.15,2013-08-01 11:34:00,
2013-08-01 04:39:00,55.8,52.0,30.01,WSW,248,2.0,-999.0,87,0.00,,,0.00,Wunderground v.1.15,2013-08-01 11:39:00,
2013-08-01 04:44:00,55.8,52.0,30.01,SW,225,5.0,-999.0,87,0.00,,,0.00,Wunderground v.1.15,2013-08-01 11:44:00,
2013-08-01 04:49:00,55.8,52.0,30.01,South,180,3.0,-999.0,87,0.00,,,0.00,Wunderground v.1.15,2013-08-01 11:49:00,
2013-08-01 04:54:00,55.9,52.1,30.01,SSE,158,2.0,-999.0,87,0.00,,,0.00,Wunderground v.1.15,2013-08-01 11:54:00,
2013-08-01 04:59:00,55.9,52.1,30.01,SSE,158,3.0,-999.0,87,0.00,,,0.00,Wunderground v.1.15,2013-08-01 11:59:00,
2013-08-01 05:04:00,55.9,51.8,30.01,SSE,158,2.0,-999.0,86,0.00,,,0.00,Wunderground v.1.15,2013-08-01 12:04:00,
2013-08-01 05:09:00,55.7,51.6,30.01,WSW,248,2.0,-999.0,86,0.00,,,0.00,Wunderground v.1.15,2013-08-01 12:09:00,
2013-08-01 05:14:00,55.6,51.5,30.01,South,180,1.0,-999.0,86,0.00,,,0.00,Wunderground v.1.15,2013-08-01 12:14:00,
2013-08-01 05:19:00,55.4,51.6,30.02,SSE,158,1.0,-999.0,87,0.00,,,0.00,Wunderground v.1.15,2013-08-01 12:19:00,
2013-08-01 05:24:00,55.2,51.4,30.02,South,180,1.0,-999.0,87,0.00,,,0.00,Wunderground v.1.15,2013-08-01 12:24:00,
2013-08-01 05:29:00,55.0,51.2,30.02,SSE,158,1.0,-999.0,87,0.00,,,0.00,Wunderground v.1.15,2013-08-01 12:29:00,
2013-08-01 05:34:00,54.9,51.4,30.02,South,180,1.0,-999.0,88,0.00,,,0.00,Wunderground v.1.15,2013-08-01 12:34:00,
2013-08-01 05:39:00,54.8,51.3,30.02,SSE,158,1.0,-999.0,88,0.00,,,0.00,Wunderground v.1.15,2013-08-01 12:39:00,
2013-08-01 05:44:00,54.8,51.3,30.02,SSE,158,0.0,-999.0,88,0.00,,,0.00,Wunderground v.1.15,2013-08-01 12:44:00,
2013-08-01 05:49:00,54.6,51.1,30.02,SSE,158,1.0,-999.0,88,0.00,,,0.00,Wunderground v.1.15,2013-08-01 12:49:00,
2013-08-01 05:54:00,54.6,51.1,30.03,SSE,158,1.0,-999.0,88,0.00,,,0.00,Wunderground v.1.15,2013-08-01 12:54:00,
2013-08-01 05:59:00,54.5,51.3,30.03,SSE,158,3.0,-999.0,89,0.00,,,0.00,Wunderground v.1.15,2013-08-01 12:59:00,
2013-08-01 06:04:00,54.5,51.3,30.03,SSE,158,1.0,-999.0,89,0.00,,,0.00,Wunderground v.1.15,2013-08-01 13:04:00,
2013-08-01 06:09:00,54.4,51.2,30.03,SSE,158,1.0,-999.0,89,0.00,,,0.00,Wunderground v.1.15,2013-08-01 13:09:00,
2013-08-01 06:14:00,54.4,51.2,30.03,South,180,2.0,-999.0,89,0.00,,,0.00,Wunderground v.1.15,2013-08-01 13:14:00,
2013-08-01 06:19:00,54.4,51.2,30.03,South,180,1.0,-999.0,89,0.00,,,0.00,Wunderground v.1.15,2013-08-01 13:19:00,
2013-08-01 06:24:00,54.5,51.6,30.03,South,180,2.0,-999.0,90,0.00,,,0.00,Wunderground v.1.15,2013-08-01 13:24:00,
2013-08-01 06:29:00,54.7,51.8,30.03,WSW,248,5.0,-999.0,90,0.00,,,0.00,Wunderground v.1.15,2013-08-01 13:29:00,
2013-08-01 06:34:00,54.9,51.7,30.04,SW,225,3.0,-999.0,89,0.00,,,0.00,Wunderground v.1.15,2013-08-01 13:34:00,
2013-08-01 06:39:00,55.0,51.8,30.03,SSW,203,4.0,-999.0,89,0.00,,,0.00,Wunderground v.1.15,2013-08-01 13:39:00,
2013-08-01 06:44:00,55.1,51.9,30.04,SSW,203,4.0,-999.0,89,0.00,,,0.00,Wunderground v.1.15,2013-08-01 13:44:00,
2013-08-01 06:49:00,55.2,52.0,30.04,South,180,1.0,-999.0,89,0.00,,,0.00,Wunderground v.1.15,2013-08-01 13:49:00,
2013-08-01 06:54:00,55.3,52.1,30.04,South,180,3.0,-999.0,89,0.00,,,0.00,Wunderground v.1.15,2013-08-01 13:54:00,
2013-08-01 06:59:00,55.4,51.9,30.04,SSE,158,3.0,-999.0,88,0.00,,,0.00,Wunderground v.1.15,2013-08-01 13:59:00,
2013-08-01 07:04:00,55.5,51.7,30.04,SSE,158,3.0,-999.0,87,0.00,,,0.00,Wunderground v.1.15,2013-08-01 14:04:00,
2013-08-01 07:09:00,55.5,51.7,30.04,WSW,248,2.0,-999.0,87,0.00,,,0.00,Wunderground v.1.15,2013-08-01 14:09:00,
2013-08-01 07:14:00,55.6,51.8,30.04,SSW,203,2.0,-999.0,87,0.00,,,0.00,Wunderground v.1.15,2013-08-01 14:14:00,
2013-08-01 07:19:00,55.7,51.9,30.04,South,180,1.0,-999.0,87,0.00,,,0.00,Wunderground v.1.15,2013-08-01 14:19:00,
2013-08-01 07:24:00,55.8,52.0,30.04,SSE,158,3.0,-999.0,87,0.00,,,0.00,Wunderground v.1.15,2013-08-01 14:24:00,
2013-08-01 07:29:00,55.9,51.8,30.04,SSE,158,3.0,-999.0,86,0.00,,,0.00,Wunderground v.1.15,2013-08-01 14:29:00,
2013-08-01 07:34:00,56.0,52.2,30.04,SSE,158,4.0,-999.0,87,0.00,,,0.00,Wunderground v.1.15,2013-08-01 14:34:00,
2013-08-01 07:39:00,56.1,52.3,30.04,SSE,158,4.0,-999.0,87,0.00,,,0.00,Wunderground v.1.15,2013-08-01 14:39:00,
2013-08-01 07:44:00,56.1,52.0,30.04,SSE,158,4.0,-999.0,86,0.00,,,0.00,Wunderground v.1.15,2013-08-01 14:44:00,
2013-08-01 07:49:00,56.2,52.1,30.05,SSE,158,4.0,-999.0,86,0.00,,,0.00,Wunderground v.1.15,2013-08-01 14:49:00,
2013-08-01 07:54:00,56.2,52.1,30.04,SSE,158,3.0,-999.0,86,0.00,,,0.00,Wunderground v.1.15,2013-08-01 14:54:00,
2013-08-01 07:59:00,56.2,52.1,30.05,SSE,158,4.0,-999.0,86,0.00,,,0.00,Wunderground v.1.15,2013-08-01 14:59:00,
2013-08-01 08:04:00,56.2,52.1,30.05,SSE,158,4.0,-999.0,86,0.00,,,0.00,Wunderground v.1.15,2013-08-01 15:04:00,
2013-08-01 08:09:00,56.3,52.2,30.05,SSE,158,2.0,-999.0,86,0.00,,,0.00,Wunderground v.1.15,2013-08-01 15:09:00,
2013-08-01 08:14:00,56.5,52.4,30.05,SSE,158,3.0,-999.0,86,0.00,,,0.00,Wunderground v.1.15,2013-08-01 15:14:00,
2013-08-01 08:19:00,56.6,52.5,30.05,SSE,158,3.0,-999.0,86,0.00,,,0.00,Wunderground v.1.15,2013-08-01 15:19:00,
2013-08-01 08:24:00,56.6,52.5,30.05,South,180,4.0,-999.0,86,0.00,,,0.00,Wunderground v.1.15,2013-08-01 15:24:00,
2013-08-01 08:29:00,56.7,52.6,30.06,SSE,158,3.0,-999.0,86,0.00,,,0.00,Wunderground v.1.15,2013-08-01 15:29:00,
2013-08-01 08:34:00,56.8,52.3,30.06,SSE,158,5.0,-999.0,85,0.00,,,0.00,Wunderground v.1.15,2013-08-01 15:34:00,
2013-08-01 08:39:00,56.9,52.4,30.06,SW,225,5.0,-999.0,85,0.00,,,0.00,Wunderground v.1.15,2013-08-01 15:39:00,
2013-08-01 08:44:00,57.2,52.4,30.06,SW,225,5.0,-999.0,84,0.00,,,0.00,Wunderground v.1.15,2013-08-01 15:44:00,
2013-08-01 08:49:00,57.3,52.5,30.06,West,270,3.0,-999.0,84,0.00,,,0.00,Wunderground v.1.15,2013-08-01 15:49:00,
2013-08-01 08:54:00,57.5,52.7,30.06,WSW,248,3.0,-999.0,84,0.00,,,0.00,Wunderground v.1.15,2013-08-01 15:54:00,
2013-08-01 08:59:00,57.8,52.7,30.06,SW,225,5.0,-999.0,83,0.00,,,0.00,Wunderground v.1.15,2013-08-01 15:59:00,
2013-08-01 09:04:00,57.8,52.3,30.06,WSW,248,5.0,-999.0,82,0.00,,,0.00,Wunderground v.1.15,2013-08-01 16:04:00,
2013-08-01 09:09:00,58.0,52.5,30.06,SW,225,5.0,-999.0,82,0.00,,,0.00,Wunderground v.1.15,2013-08-01 16:09:00,
2013-08-01 09:14:00,58.3,52.8,30.06,SW,225,2.0,-999.0,82,0.00,,,0.00,Wunderground v.1.15,2013-08-01 16:14:00,
2013-08-01 09:19:00,58.8,53.0,30.05,SW,225,6.0,-999.0,81,0.00,,,0.00,Wunderground v.1.15,2013-08-01 16:19:00,
2013-08-01 09:24:00,59.1,53.3,30.05,SW,225,4.0,-999.0,81,0.00,,,0.00,Wunderground v.1.15,2013-08-01 16:24:00,
2013-08-01 09:29:00,59.1,53.3,30.05,WSW,248,6.0,-999.0,81,0.00,,,0.00,Wunderground v.1.15,2013-08-01 16:29:00,
2013-08-01 09:34:00,59.1,53.3,30.06,WSW,248,5.0,-999.0,81,0.00,,,0.00,Wunderground v.1.15,2013-08-01 16:34:00,
2013-08-01 09:39:00,59.3,53.5,30.05,SW,225,4.0,-999.0,81,0.00,,,0.00,Wunderground v.1.15,2013-08-01 16:39:00,
2013-08-01 09:44:00,59.7,53.9,30.06,West,270,2.0,-999.0,81,0.00,,,0.00,Wunderground v.1.15,2013-08-01 16:44:00,
2013-08-01 09:49:00,60.5,53.6,30.05,SSE,158,4.0,-999.0,78,0.00,,,0.00,Wunderground v.1.15,2013-08-01 16:49:00,
2013-08-01 09:54:00,60.6,53.3,30.06,SW,225,5.0,-999.0,77,0.00,,,0.00,Wunderground v.1.15,2013-08-01 16:54:00,
2013-08-01 09:59:00,61.0,53.7,30.06,SSW,203,3.0,-999.0,77,0.00,,,0.00,Wunderground v.1.15,2013-08-01 16:59:00,
2013-08-01 10:04:00,61.3,54.0,30.06,SW,225,6.0,-999.0,77,0.00,,,0.00,Wunderground v.1.15,2013-08-01 17:04:00,
2013-08-01 10:09:00,61.3,54.4,30.06,SW,225,5.0,-999.0,78,0.00,,,0.00,Wunderground v.1.15,2013-08-01 17:09:00,
2013-08-01 10:14:00,61.3,53.7,30.06,SW,225,7.0,-999.0,76,0.00,,,0.00,Wunderground v.1.15,2013-08-01 17:14:00,
2013-08-01 10:19:00,61.2,53.9,30.06,WSW,248,6.0,-999.0,77,0.00,,,0.00,Wunderground v.1.15,2013-08-01 17:19:00,
2013-08-01 10:24:00,61.1,53.5,30.06,WSW,248,8.0,-999.0,76,0.00,,,0.00,Wunderground v.1.15,2013-08-01 17:24:00,
2013-08-01 10:29:00,61.3,53.7,30.06,WSW,248,6.0,-999.0,76,0.00,,,0.00,Wunderground v.1.15,2013-08-01 17:29:00,
2013-08-01 10:34:00,61.4,54.1,30.06,WSW,248,6.0,-999.0,77,0.00,,,0.00,Wunderground v.1.15,2013-08-01 17:34:00,
2013-08-01 10:39:00,61.6,54.0,30.06,SW,225,6.0,-999.0,76,0.00,,,0.00,Wunderground v.1.15,2013-08-01 17:39:00,
2013-08-01 10:44:00,61.9,53.9,30.06,WSW,248,6.0,-999.0,75,0.00,,,0.00,Wunderground v.1.15,2013-08-01 17:44:00,
2013-08-01 10:49:00,61.8,53.8,30.06,WSW,248,7.0,-999.0,75,0.00,,,0.00,Wunderground v.1.15,2013-08-01 17:49:00,
2013-08-01 10:54:00,61.9,53.9,30.06,WSW,248,7.0,-999.0,75,0.00,,,0.00,Wunderground v.1.15,2013-08-01 17:54:00,
2013-08-01 10:59:00,62.1,53.7,30.06,WSW,248,5.0,-999.0,74,0.00,,,0.00,Wunderground v.1.15,2013-08-01 17:59:00,
2013-08-01 11:04:00,62.2,53.4,30.06,WSW,248,6.0,-999.0,73,0.00,,,0.00,Wunderground v.1.15,2013-08-01 18:04:00,
2013-08-01 11:09:00,62.5,53.3,30.07,SW,225,6.0,-999.0,72,0.00,,,0.00,Wunderground v.1.15,2013-08-01 18:09:00,
2013-08-01 11:14:00,62.6,54.2,30.07,WSW,248,6.0,-999.0,74,0.00,,,0.00,Wunderground v.1.15,2013-08-01 18:14:00,
2013-08-01 11:19:00,62.5,53.3,30.07,SW,225,6.0,-999.0,72,0.00,,,0.00,Wunderground v.1.15,2013-08-01 18:19:00,
2013-08-01 11:24:00,61.9,53.1,30.07,WSW,248,7.0,-999.0,73,0.00,,,0.00,Wunderground v.1.15,2013-08-01 18:24:00,
2013-08-01 11:29:00,62.2,53.4,30.07,SW,225,6.0,-999.0,73,0.00,,,0.00,Wunderground v.1.15,2013-08-01 18:29:00,
2013-08-01 11:34:00,62.4,52.9,30.07,SW,225,6.0,-999.0,71,0.00,,,0.00,Wunderground v.1.15,2013-08-01 18:34:00,
2013-08-01 11:39:00,63.0,53.4,30.07,SSW,203,6.0,-999.0,71,0.00,,,0.00,Wunderground v.1.15,2013-08-01 18:39:00,
2013-08-01 11:44:00,62.9,53.4,30.07,WSW,248,7.0,-999.0,71,0.00,,,0.00,Wunderground v.1.15,2013-08-01 18:44:00,
2013-08-01 11:49:00,62.8,53.3,30.06,SW,225,6.0,-999.0,71,0.00,,,0.00,Wunderground v.1.15,2013-08-01 18:49:00,
2013-08-01 11:54:00,62.7,53.5,30.07,WSW,248,6.0,-999.0,72,0.00,,,0.00,Wunderground v.1.15,2013-08-01 18:54:00,
2013-08-01 11:59:00,62.9,53.7,30.06,NW,315,5.0,-999.0,72,0.00,,,0.00,Wunderground v.1.15,2013-08-01 18:59:00,
2013-08-01 12:04:00,63.7,54.1,30.06,SW,225,3.0,-999.0,71,0.00,,,0.00,Wunderground v.1.15,2013-08-01 19:04:00,
2013-08-01 12:09:00,64.6,54.6,30.06,SW,225,5.0,-999.0,70,0.00,,,0.00,Wunderground v.1.15,2013-08-01 19:09:00,
2013-08-01 12:14:00,63.7,53.3,30.06,WSW,248,6.0,-999.0,69,0.00,,,0.00,Wunderground v.1.15,2013-08-01 19:14:00,
2013-08-01 12:19:00,64.1,54.5,30.06,WSW,248,5.0,-999.0,71,0.00,,,0.00,Wunderground v.1.15,2013-08-01 19:19:00,
2013-08-01 12:24:00,64.3,53.9,30.06,SW,225,7.0,-999.0,69,0.00,,,0.00,Wunderground v.1.15,2013-08-01 19:24:00,
2013-08-01 12:29:00,64.4,54.4,30.06,WSW,248,5.0,-999.0,70,0.00,,,0.00,Wunderground v.1.15,2013-08-01 19:29:00,
2013-08-01 12:34:00,64.8,54.4,30.05,SW,225,6.0,-999.0,69,0.00,,,0.00,Wunderground v.1.15,2013-08-01 19:34:00,
2013-08-01 12:39:00,64.8,54.0,30.06,SW,225,7.0,-999.0,68,0.00,,,0.00,Wunderground v.1.15,2013-08-01 19:39:00,
2013-08-01 12:44:00,65.0,54.6,30.06,SW,225,6.0,-999.0,69,0.00,,,0.00,Wunderground v.1.15,2013-08-01 19:44:00,
2013-08-01 12:49:00,66.0,54.7,30.05,NW,315,6.0,-999.0,67,0.00,,,0.00,Wunderground v.1.15,2013-08-01 19:49:00,
2013-08-01 12:54:00,65.9,53.8,30.05,SW,225,7.0,-999.0,65,0.00,,,0.00,Wunderground v.1.15,2013-08-01 19:54:00,
2013-08-01 12:59:00,65.4,53.7,30.05,SW,225,5.0,-999.0,66,0.00,,,0.00,Wunderground v.1.15,2013-08-01 19:59:00,
2013-08-01 13:04:00,65.5,53.4,30.05,SW,225,8.0,-999.0,65,0.00,,,0.00,Wunderground v.1.15,2013-08-01 20:04:00,
2013-08-01 13:09:00,65.3,54.1,30.05,SW,225,7.0,-999.0,67,0.00,,,0.00,Wunderground v.1.15,2013-08-01 20:09:00,
2013-08-01 13:14:00,66.0,54.7,30.05,SW,225,6.0,-999.0,67,0.00,,,0.00,Wunderground v.1.15,2013-08-01 20:14:00,
2013-08-01 13:19:00,66.0,54.7,30.05,SW,225,8.0,-999.0,67,0.00,,,0.00,Wunderground v.1.15,2013-08-01 20:19:00,
2013-08-01 13:24:00,66.2,54.9,30.05,West,270,6.0,-999.0,67,0.00,,,0.00,Wunderground v.1.15,2013-08-01 20:24:00,
2013-08-01 13:29:00,66.2,54.5,30.05,SW,225,6.0,-999.0,66,0.00,,,0.00,Wunderground v.1.15,2013-08-01 20:29:00,
2013-08-01 13:34:00,66.5,54.4,30.05,SW,225,6.0,-999.0,65,0.00,,,0.00,Wunderground v.1.15,2013-08-01 20:34:00,
2013-08-01 13:39:00,66.8,54.7,30.05,SW,225,5.0,-999.0,65,0.00,,,0.00,Wunderground v.1.15,2013-08-01 20:39:00,
2013-08-01 13:44:00,66.2,53.7,30.05,SW,225,7.0,-999.0,64,0.00,,,0.00,Wunderground v.1.15,2013-08-01 20:44:00,
2013-08-01 13:49:00,65.6,53.1,30.05,SW,225,9.0,-999.0,64,0.00,,,0.00,Wunderground v.1.15,2013-08-01 20:49:00,
2013-08-01 13:54:00,65.4,54.2,30.04,SW,225,8.0,-999.0,67,0.00,,,0.00,Wunderground v.1.15,2013-08-01 20:54:00,
2013-08-01 13:59:00,65.4,54.2,30.04,SW,225,9.0,-999.0,67,0.00,,,0.00,Wunderground v.1.15,2013-08-01 20:59:00,
2013-08-01 14:04:00,65.4,54.2,30.04,SW,225,8.0,-999.0,67,0.00,,,0.00,Wunderground v.1.15,2013-08-01 21:04:00,
2013-08-01 14:09:00,65.8,54.5,30.04,SW,225,7.0,-999.0,67,0.00,,,0.00,Wunderground v.1.15,2013-08-01 21:09:00,
2013-08-01 14:14:00,65.8,54.1,30.04,SW,225,7.0,-999.0,66,0.00,,,0.00,Wunderground v.1.15,2013-08-01 21:14:00,
2013-08-01 14:19:00,66.1,53.6,30.04,SW,225,6.0,-999.0,64,0.00,,,0.00,Wunderground v.1.15,2013-08-01 21:19:00,
2013-08-01 14:24:00,66.0,53.5,30.03,SW,225,7.0,-999.0,64,0.00,,,0.00,Wunderground v.1.15,2013-08-01 21:24:00,
2013-08-01 14:29:00,66.2,54.5,30.03,SW,225,7.0,-999.0,66,0.00,,,0.00,Wunderground v.1.15,2013-08-01 21:29:00,
2013-08-01 14:34:00,66.2,54.1,30.03,SW,225,8.0,-999.0,65,0.00,,,0.00,Wunderground v.1.15,2013-08-01 21:34:00,
2013-08-01 14:39:00,66.2,54.1,30.03,SW,225,8.0,-999.0,65,0.00,,,0.00,Wunderground v.1.15,2013-08-01 21:39:00,
2013-08-01 14:49:00,67.4,55.2,30.03,SW,225,5.0,-999.0,65,0.00,,,0.00,Wunderground v.1.15,2013-08-01 21:49:00,
2013-08-01 14:54:00,67.3,53.8,30.02,SW,225,8.0,-999.0,62,0.00,,,0.00,Wunderground v.1.15,2013-08-01 21:54:00,
2013-08-01 14:59:00,67.3,54.3,30.02,WSW,248,6.0,-999.0,63,0.00,,,0.00,Wunderground v.1.15,2013-08-01 21:59:00,
2013-08-01 15:04:00,67.5,54.5,30.02,NW,315,7.0,-999.0,63,0.00,,,0.00,Wunderground v.1.15,2013-08-01 22:04:00,
2013-08-01 15:09:00,68.1,54.6,30.02,WSW,248,7.0,-999.0,62,0.00,,,0.00,Wunderground v.1.15,2013-08-01 22:09:00,
2013-08-01 15:14:00,67.5,54.0,30.02,SW,225,8.0,-999.0,62,0.00,,,0.00,Wunderground v.1.15,2013-08-01 22:14:00,
2013-08-01 15:19:00,67.0,54.4,30.01,SW,225,6.0,-999.0,64,0.00,,,0.00,Wunderground v.1.15,2013-08-01 22:19:00,
2013-08-01 15:24:00,67.4,54.8,30.01,SW,225,7.0,-999.0,64,0.00,,,0.00,Wunderground v.1.15,2013-08-01 22:24:00,
2013-08-01 15:29:00,68.2,55.6,30.01,SW,225,5.0,-999.0,64,0.00,,,0.00,Wunderground v.1.15,2013-08-01 22:29:00,
2013-08-01 15:34:00,68.5,55.0,30.01,SW,225,8.0,-999.0,62,0.00,,,0.00,Wunderground v.1.15,2013-08-01 22:34:00,
2013-08-01 15:39:00,68.2,54.2,30.01,WSW,248,7.0,-999.0,61,0.00,,,0.00,Wunderground v.1.15,2013-08-01 22:39:00,
2013-08-01 15:44:00,68.4,54.9,30.01,SW,225,7.0,-999.0,62,0.00,,,0.00,Wunderground v.1.15,2013-08-01 22:44:00,
2013-08-01 15:49:00,67.9,54.8,30.01,SW,225,8.0,-999.0,63,0.00,,,0.00,Wunderground v.1.15,2013-08-01 22:49:00,
2013-08-01 15:54:00,67.9,55.3,30.01,SW,225,7.0,-999.0,64,0.00,,,0.00,Wunderground v.1.15,2013-08-01 22:54:00,
2013-08-01 15:59:00,68.6,56.4,30.00,SW,225,5.0,-999.0,65,0.00,,,0.00,Wunderground v.1.15,2013-08-01 22:59:00,
2013-08-01 16:04:00,68.7,55.6,30.00,SW,225,7.0,-999.0,63,0.00,,,0.00,Wunderground v.1.15,2013-08-01 23:04:00,
2013-08-01 16:09:00,68.1,55.5,30.00,SW,225,7.0,-999.0,64,0.00,,,0.00,Wunderground v.1.15,2013-08-01 23:09:00,
2013-08-01 16:14:00,68.2,55.1,30.00,WSW,248,6.0,-999.0,63,0.00,,,0.00,Wunderground v.1.15,2013-08-01 23:14:00,
2013-08-01 16:19:00,68.3,55.2,30.00,WSW,248,6.0,-999.0,63,0.00,,,0.00,Wunderground v.1.15,2013-08-01 23:19:00,
2013-08-01 16:24:00,68.3,56.1,30.00,SW,225,7.0,-999.0,65,0.00,,,0.00,Wunderground v.1.15,2013-08-01 23:24:00,
2013-08-01 16:29:00,68.0,55.4,30.00,SW,225,8.0,-999.0,64,0.00,,,0.00,Wunderground v.1.15,2013-08-01 23:29:00,
2013-08-01 16:34:00,67.4,54.8,30.00,SW,225,7.0,-999.0,64,0.00,,,0.00,Wunderground v.1.15,2013-08-01 23:34:00,
2013-08-01 16:39:00,67.0,54.8,30.00,SW,225,7.0,-999.0,65,0.00,,,0.00,Wunderground v.1.15,2013-08-01 23:39:00,
2013-08-01 16:44:00,67.0,55.3,29.99,SSW,203,6.0,-999.0,66,0.00,,,0.00,Wunderground v.1.15,2013-08-01 23:44:00,
2013-08-01 16:49:00,66.9,55.2,29.99,SW,225,7.0,-999.0,66,0.00,,,0.00,Wunderground v.1.15,2013-08-01 23:49:00,
2013-08-01 16:54:00,66.7,55.0,29.99,SW,225,6.0,-999.0,66,0.00,,,0.00,Wunderground v.1.15,2013-08-01 23:54:00,
2013-08-01 16:59:00,67.1,54.9,29.99,SSW,203,6.0,-999.0,65,0.00,,,0.00,Wunderground v.1.15,2013-08-01 23:59:00,
2013-08-01 17:04:00,66.6,54.9,29.99,SW,225,6.0,-999.0,66,0.00,,,0.00,Wunderground v.1.15,2013-08-02 00:04:00,
2013-08-01 17:09:00,66.8,55.1,29.99,SW,225,7.0,-999.0,66,0.00,,,0.00,Wunderground v.1.15,2013-08-02 00:09:00,
2013-08-01 17:14:00,66.5,55.2,29.99,SW,225,5.0,-999.0,67,0.00,,,0.00,Wunderground v.1.15,2013-08-02 00:14:00,
2013-08-01 17:19:00,66.5,55.2,29.98,SW,225,4.0,-999.0,67,0.00,,,0.00,Wunderground v.1.15,2013-08-02 00:19:00,
2013-08-01 17:24:00,66.8,55.1,29.98,WSW,248,6.0,-999.0,66,0.00,,,0.00,Wunderground v.1.15,2013-08-02 00:24:00,
2013-08-01 17:29:00,67.2,55.9,29.98,SSW,203,5.0,-999.0,67,0.00,,,0.00,Wunderground v.1.15,2013-08-02 00:29:00,
2013-08-01 17:34:00,66.9,55.6,29.98,SW,225,6.0,-999.0,67,0.00,,,0.00,Wunderground v.1.15,2013-08-02 00:34:00,
2013-08-01 17:39:00,66.4,55.5,29.98,SW,225,6.0,-999.0,68,0.00,,,0.00,Wunderground v.1.15,2013-08-02 00:39:00,
2013-08-01 17:44:00,66.1,55.6,29.98,SW,225,6.0,-999.0,69,0.00,,,0.00,Wunderground v.1.15,2013-08-02 00:44:00,
2013-08-01 17:49:00,66.2,55.7,29.98,SW,225,7.0,-999.0,69,0.00,,,0.00,Wunderground v.1.15,2013-08-02 00:49:00,
2013-08-01 17:54:00,66.2,55.3,29.97,SW,225,4.0,-999.0,68,0.00,,,0.00,Wunderground v.1.15,2013-08-02 00:54:00,
2013-08-01 17:59:00,66.4,55.9,29.97,SW,225,6.0,-999.0,69,0.00,,,0.00,Wunderground v.1.15,2013-08-02 00:59:00,
2013-08-01 18:04:00,66.4,55.9,29.97,SW,225,6.0,-999.0,69,0.00,,,0.00,Wunderground v.1.15,2013-08-02 01:04:00,
2013-08-01 18:09:00,66.0,55.5,29.97,SW,225,6.0,-999.0,69,0.00,,,0.00,Wunderground v.1.15,2013-08-02 01:09:00,
2013-08-01 18:14:00,65.7,55.2,29.97,SW,225,7.0,-999.0,69,0.00,,,0.00,Wunderground v.1.15,2013-08-02 01:14:00,
2013-08-01 18:19:00,65.6,55.5,29.97,WSW,248,6.0,-999.0,70,0.00,,,0.00,Wunderground v.1.15,2013-08-02 01:19:00,
2013-08-01 18:24:00,65.4,55.0,29.97,WSW,248,6.0,-999.0,69,0.00,,,0.00,Wunderground v.1.15,2013-08-02 01:24:00,
2013-08-01 18:29:00,65.0,55.4,29.97,WSW,248,6.0,-999.0,71,0.00,,,0.00,Wunderground v.1.15,2013-08-02 01:29:00,
2013-08-01 18:34:00,64.4,55.2,29.97,SW,225,7.0,-999.0,72,0.00,,,0.00,Wunderground v.1.15,2013-08-02 01:34:00,
2013-08-01 18:39:00,64.0,55.2,29.97,SW,225,5.0,-999.0,73,0.00,,,0.00,Wunderground v.1.15,2013-08-02 01:39:00,
2013-08-01 18:44:00,64.1,55.3,29.97,SSW,203,5.0,-999.0,73,0.00,,,0.00,Wunderground v.1.15,2013-08-02 01:44:00,
2013-08-01 18:49:00,64.1,55.3,29.97,West,270,4.0,-999.0,73,0.00,,,0.00,Wunderground v.1.15,2013-08-02 01:49:00,
2013-08-01 18:54:00,63.7,54.9,29.97,SW,225,4.0,-999.0,73,0.00,,,0.00,Wunderground v.1.15,2013-08-02 01:54:00,
2013-08-01 18:59:00,63.3,54.9,29.97,SW,225,4.0,-999.0,74,0.00,,,0.00,Wunderground v.1.15,2013-08-02 01:59:00,
2013-08-01 19:04:00,63.0,54.9,29.97,SW,225,3.0,-999.0,75,0.00,,,0.00,Wunderground v.1.15,2013-08-02 02:04:00,
2013-08-01 19:09:00,62.7,54.7,29.97,SW,225,5.0,-999.0,75,0.00,,,0.00,Wunderground v.1.15,2013-08-02 02:09:00,
2013-08-01 19:14:00,62.3,54.3,29.97,SW,225,5.0,-999.0,75,0.00,,,0.00,Wunderground v.1.15,2013-08-02 02:14:00,
2013-08-01 19:19:00,62.0,54.3,29.97,SW,225,5.0,-999.0,76,0.00,,,0.00,Wunderground v.1.15,2013-08-02 02:19:00,
2013-08-01 19:24:00,61.3,54.7,29.97,SW,225,5.0,-999.0,79,0.00,,,0.00,Wunderground v.1.15,2013-08-02 02:24:00,
2013-08-01 19:29:00,60.6,54.4,29.97,WSW,248,5.0,-999.0,80,0.00,,,0.00,Wunderground v.1.15,2013-08-02 02:29:00,
2013-08-01 19:34:00,60.4,54.5,29.97,SW,225,4.0,-999.0,81,0.00,,,0.00,Wunderground v.1.15,2013-08-02 02:34:00,
2013-08-01 19:39:00,60.1,54.6,29.97,WSW,248,4.0,-999.0,82,0.00,,,0.00,Wunderground v.1.15,2013-08-02 02:39:00,
2013-08-01 19:44:00,59.9,54.4,29.97,SW,225,5.0,-999.0,82,0.00,,,0.00,Wunderground v.1.15,2013-08-02 02:44:00,
2013-08-01 19:49:00,59.5,54.3,29.97,WSW,248,4.0,-999.0,83,0.00,,,0.00,Wunderground v.1.15,2013-08-02 02:49:00,
2013-08-01 19:54:00,59.2,54.4,29.97,SW,225,3.0,-999.0,84,0.00,,,0.00,Wunderground v.1.15,2013-08-02 02:54:00,
2013-08-01 19:59:00,58.8,54.0,29.97,SW,225,4.0,-999.0,84,0.00,,,0.00,Wunderground v.1.15,2013-08-02 02:59:00,
2013-08-01 20:04:00,58.5,54.0,29.97,WSW,248,2.0,-999.0,85,0.00,,,0.00,Wunderground v.1.15,2013-08-02 03:04:00,
2013-08-01 20:09:00,58.3,53.8,29.97,WSW,248,2.0,-999.0,85,0.00,,,0.00,Wunderground v.1.15,2013-08-02 03:09:00,
2013-08-01 20:14:00,58.1,53.6,29.96,South,180,1.0,-999.0,85,0.00,,,0.00,Wunderground v.1.15,2013-08-02 03:14:00,
2013-08-01 20:19:00,58.0,53.5,29.97,South,180,1.0,-999.0,85,0.00,,,0.00,Wunderground v.1.15,2013-08-02 03:19:00,
2013-08-01 20:24:00,57.8,53.6,29.97,South,180,1.0,-999.0,86,0.00,,,0.00,Wunderground v.1.15,2013-08-02 03:24:00,
2013-08-01 20:29:00,57.6,53.4,29.97,South,180,0.0,-999.0,86,0.00,,,0.00,Wunderground v.1.15,2013-08-02 03:29:00,
2013-08-01 20:34:00,57.4,53.2,29.97,South,180,0.0,-999.0,86,0.00,,,0.00,Wunderground v.1.15,2013-08-02 03:34:00,
2013-08-01 20:39:00,57.2,53.0,29.97,N/A,-737280,0.0,-999.0,86,0.00,,,0.00,Wunderground v.1.15,2013-08-02 03:39:00,
2013-08-01 20:44:00,57.1,53.3,29.97,South,180,0.0,-999.0,87,0.00,,,0.00,Wunderground v.1.15,2013-08-02 03:44:00,
2013-08-01 20:49:00,57.0,53.5,29.97,South,180,0.0,-999.0,88,0.00,,,0.00,Wunderground v.1.15,2013-08-02 03:49:00,
2013-08-01 20:54:00,57.0,53.5,29.97,South,180,1.0,-999.0,88,0.00,,,0.00,Wunderground v.1.15,2013-08-02 03:54:00,
2013-08-01 20:59:00,57.1,53.6,29.97,South,180,2.0,-999.0,88,0.00,,,0.00,Wunderground v.1.15,2013-08-02 03:59:00,
2013-08-01 21:04:00,57.2,53.7,29.97,SW,225,3.0,-999.0,88,0.00,,,0.00,Wunderground v.1.15,2013-08-02 04:04:00,
2013-08-01 21:09:00,57.2,53.7,29.97,South,180,2.0,-999.0,88,0.00,,,0.00,Wunderground v.1.15,2013-08-02 04:09:00,
2013-08-01 21:14:00,57.2,53.7,29.97,South,180,2.0,-999.0,88,0.00,,,0.00,Wunderground v.1.15,2013-08-02 04:14:00,
2013-08-01 21:19:00,57.2,53.7,29.97,SSE,158,3.0,-999.0,88,0.00,,,0.00,Wunderground v.1.15,2013-08-02 04:19:00,
2013-08-01 21:24:00,57.2,53.7,29.97,SSE,158,2.0,-999.0,88,0.00,,,0.00,Wunderground v.1.15,2013-08-02 04:24:00,
2013-08-01 21:29:00,57.3,53.8,29.98,SSE,158,4.0,-999.0,88,0.00,,,0.00,Wunderground v.1.15,2013-08-02 04:29:00,
2013-08-01 21:34:00,57.2,53.7,29.97,SSE,158,3.0,-999.0,88,0.00,,,0.00,Wunderground v.1.15,2013-08-02 04:34:00,
2013-08-01 21:39:00,57.1,53.6,29.98,SSE,158,4.0,-999.0,88,0.00,,,0.00,Wunderground v.1.15,2013-08-02 04:39:00,
2013-08-01 21:44:00,57.1,53.6,29.98,SSE,158,3.0,-999.0,88,0.00,,,0.00,Wunderground v.1.15,2013-08-02 04:44:00,
2013-08-01 21:49:00,57.0,53.5,29.98,SSW,203,2.0,-999.0,88,0.00,,,0.00,Wunderground v.1.15,2013-08-02 04:49:00,
2013-08-01 21:54:00,56.9,53.7,29.98,SSE,158,1.0,-999.0,89,0.00,,,0.00,Wunderground v.1.15,2013-08-02 04:54:00,
2013-08-01 21:59:00,56.8,53.6,29.98,SSE,158,2.0,-999.0,89,0.00,,,0.00,Wunderground v.1.15,2013-08-02 04:59:00,
2013-08-01 22:04:00,56.8,53.6,29.97,SSE,158,1.0,-999.0,89,0.00,,,0.00,Wunderground v.1.15,2013-08-02 05:04:00,
2013-08-01 22:09:00,56.7,53.5,29.97,SW,225,1.0,-999.0,89,0.00,,,0.00,Wunderground v.1.15,2013-08-02 05:09:00,
2013-08-01 22:14:00,56.5,53.3,29.97,SW,225,1.0,-999.0,89,0.00,,,0.00,Wunderground v.1.15,2013-08-02 05:14:00,
2013-08-01 22:19:00,56.3,53.1,29.97,SW,225,1.0,-999.0,89,0.00,,,0.00,Wunderground v.1.15,2013-08-02 05:19:00,
2013-08-01 22:24:00,56.2,53.3,29.97,WSW,248,1.0,-999.0,90,0.00,,,0.00,Wunderground v.1.15,2013-08-02 05:24:00,
2013-08-01 22:29:00,56.1,53.2,29.97,West,270,1.0,-999.0,90,0.00,,,0.00,Wunderground v.1.15,2013-08-02 05:29:00,
2013-08-01 22:34:00,56.0,53.1,29.97,WSW,248,1.0,-999.0,90,0.00,,,0.00,Wunderground v.1.15,2013-08-02 05:34:00,
2013-08-01 22:39:00,55.9,53.0,29.97,NW,315,1.0,-999.0,90,0.00,,,0.00,Wunderground v.1.15,2013-08-02 05:39:00,
2013-08-01 22:44:00,55.8,53.2,29.96,NW,315,0.0,-999.0,91,0.00,,,0.00,Wunderground v.1.15,2013-08-02 05:44:00,
2013-08-01 22:49:00,55.7,52.8,29.96,NW,315,0.0,-999.0,90,0.00,,,0.00,Wunderground v.1.15,2013-08-02 05:49:00,
2013-08-01 22:54:00,55.5,52.6,29.96,N/A,-737280,0.0,-999.0,90,0.00,,,0.00,Wunderground v.1.15,2013-08-02 05:54:00,
2013-08-01 22:59:00,55.4,52.5,29.96,N/A,-737280,0.0,-999.0,90,0.00,,,0.00,Wunderground v.1.15,2013-08-02 05:59:00,
2013-08-01 23:04:00,55.2,52.6,29.96,North,0,0.0,-999.0,91,0.00,,,0.00,Wunderground v.1.15,2013-08-02 06:04:00,
2013-08-01 23:09:00,55.0,52.1,29.95,N/A,-737280,0.0,-999.0,90,0.00,,,0.00,Wunderground v.1.15,2013-08-02 06:09:00,
2013-08-01 23:14:00,54.8,52.2,29.95,ENE,68,0.0,-999.0,91,0.00,,,0.00,Wunderground v.1.15,2013-08-02 06:14:00,
2013-08-01 23:19:00,54.5,51.6,29.95,ENE,68,0.0,-999.0,90,0.00,,,0.00,Wunderground v.1.15,2013-08-02 06:19:00,
2013-08-01 23:24:00,54.3,51.7,29.95,ENE,68,0.0,-999.0,91,0.00,,,0.00,Wunderground v.1.15,2013-08-02 06:24:00,
2013-08-01 23:29:00,54.1,51.5,29.95,ENE,68,0.0,-999.0,91,0.00,,,0.00,Wunderground v.1.15,2013-08-02 06:29:00,
2013-08-01 23:34:00,53.9,51.3,29.95,N/A,-737280,0.0,-999.0,91,0.00,,,0.00,Wunderground v.1.15,2013-08-02 06:34:00,
2013-08-01 23:39:00,53.7,51.1,29.95,ENE,68,0.0,-999.0,91,0.00,,,0.00,Wunderground v.1.15,2013-08-02 06:39:00,
2013-08-01 23:44:00,53.4,50.8,29.95,N/A,-737280,0.0,-999.0,91,0.00,,,0.00,Wunderground v.1.15,2013-08-02 06:44:00,
2013-08-01 23:49:00,53.2,50.6,29.95,N/A,-737280,0.0,-999.0,91,0.00,,,0.00,Wunderground v.1.15,2013-08-02 06:49:00,
2013-08-01 23:54:00,53.1,50.5,29.95,ENE,68,0.0,-999.0,91,0.00,,,0.00,Wunderground v.1.15,2013-08-02 06:54:00,
2013-08-01 23:59:00,52.9,50.3,29.95,ENE,68,0.0,-999.0,91,0.00,,,0.00,Wunderground v.1.15,2013-08-02 06:59:00,